Date String (YYYY-MM-DD hh:mm:ss) UTC,Instrument flags,Ambient pressure (hPa),Sample flow (lpm),Bypass flow (lpm),Sample temperature (°C),Ambient temperature (°C),ASC tube jacket temperature (°C),LED temperature (°C),Box temperature (°C),Sample RH (%),Span deviation,Mass concentration (μg/m³),Mass concentration (μg/m³),Mass concentration (μg/m³)
DateTimeUTC,F1_M11,P_M11,Q1_M11,Q2_M11,T1_M11,T2_M11,T3_M11,T4_M11,T5_M11,U1_M11,ZSPAN_M11,X0_M11,X2_M11,X1_M11
2022-10-15 10:00:00,,0826.1,5.01,0.00,28.5,26.7,00.0,37.5,30.2,08.6,0000.0,0010.80,0003.45,0002.88
2022-10-15 10:01:00,,0825.9,5.01,0.00,28.5,26.7,00.0,37.5,30.2,08.8,0000.0,0010.30,0003.47,0002.90
2022-10-15 10:02:00,,0825.8,4.99,0.00,28.5,26.7,00.0,37.5,30.2,08.7,0000.0,0010.76,0003.51,0002.92
2022-10-15 10:03:00,,0825.8,5.01,0.00,28.5,26.7,00.0,37.5,30.2,08.7,0000.0,0011.35,0003.53,0002.93
2022-10-15 10:04:00,,0825.8,5.00,0.00,28.4,26.6,00.0,37.5,30.1,08.7,0000.0,0011.53,0003.51,0002.90
2022-10-15 10:05:00,,0825.8,5.00,0.00,28.4,26.6,00.0,37.4,30.1,08.5,0000.0,0012.09,0003.51,0002.90
2022-10-15 10:06:00,,0825.8,5.00,0.00,28.4,26.6,00.0,37.4,30.0,08.5,0000.0,0012.33,0003.49,0002.88
2022-10-15 10:07:00,,0825.8,4.99,0.00,28.4,26.6,00.0,37.4,30.0,08.4,0000.0,0012.67,0003.48,0002.86
2022-10-15 10:08:00,,0825.8,5.01,0.00,28.4,26.6,00.0,37.4,30.0,08.4,0000.0,0013.23,0003.51,0002.88
2022-10-15 10:09:00,,0825.9,5.00,0.00,28.4,26.6,00.0,37.4,30.0,08.4,0000.0,0012.90,0003.55,0002.90
2022-10-15 10:10:00,,0825.8,4.99,0.00,28.3,26.6,00.0,37.4,30.1,08.4,0000.0,0010.76,0003.56,0002.91
2022-10-15 10:11:00,,0825.8,5.00,0.00,28.3,26.6,00.0,37.3,30.0,08.3,0000.0,0010.65,0003.57,0002.90
2022-10-15 10:12:00,,0825.8,5.01,0.00,28.3,26.6,00.0,37.3,30.0,08.3,0000.0,0010.65,0003.55,0002.87
2022-10-15 10:13:00,,0825.8,5.01,0.00,28.3,26.5,00.0,37.3,30.0,08.4,0000.0,0010.81,0003.53,0002.85
2022-10-15 10:14:00,,0825.9,4.98,0.00,28.3,26.5,00.0,37.3,30.0,08.4,0000.0,0010.32,0003.51,0002.82
2022-10-15 10:15:00,,0825.9,5.01,0.00,28.3,26.5,00.0,37.3,30.0,08.4,0000.0,0010.04,0003.51,0002.79
2022-10-15 10:16:00,,0825.9,5.01,0.00,28.3,26.5,00.0,37.3,30.0,08.3,0000.0,0009.38,0003.51,0002.76
2022-10-15 10:17:00,,0825.9,5.01,0.00,28.3,26.5,00.0,37.3,30.0,08.4,0000.0,0008.74,0003.50,0002.74
2022-10-15 10:18:00,,0826.0,4.99,0.00,28.3,26.5,00.0,37.3,30.0,08.3,0000.0,0008.23,0003.46,0002.73
2022-10-15 10:19:00,,0825.9,5.00,0.00,28.3,26.5,00.0,37.2,30.0,08.3,0000.0,0007.83,0003.44,0002.71
2022-10-15 10:20:00,,0826.0,5.00,0.00,28.3,26.5,00.0,37.2,30.0,08.4,0000.0,0007.61,0003.43,0002.69
2022-10-15 10:21:00,,0826.0,5.00,0.00,28.3,26.5,00.0,37.2,30.0,08.4,0000.0,0007.52,0003.41,0002.67
2022-10-15 10:22:00,,0825.9,5.00,0.00,28.2,26.5,00.0,37.2,29.9,08.4,0000.0,0007.46,0003.39,0002.64
2022-10-15 10:23:00,,0826.0,5.00,0.00,28.2,26.5,00.0,37.2,30.0,08.4,0000.0,0007.60,0003.36,0002.63
2022-10-15 10:24:00,,0825.9,5.00,0.00,28.2,26.5,00.0,37.2,29.9,08.4,0000.0,0006.71,0003.36,0002.61
2022-10-15 10:25:00,,0826.0,5.00,0.00,28.2,26.4,00.0,37.2,29.9,08.4,0000.0,0006.92,0003.38,0002.60
2022-10-15 10:26:00,,0826.0,5.01,0.00,28.2,26.5,00.0,37.2,30.0,08.4,0000.0,0007.03,0003.38,0002.60
2022-10-15 10:27:00,,0825.9,5.00,0.00,28.2,26.5,00.0,37.2,29.9,08.4,0000.0,0008.06,0003.41,0002.60
2022-10-15 10:28:00,,0825.9,5.00,0.00,28.2,26.4,00.0,37.1,29.9,08.5,0000.0,0008.50,0003.40,0002.58
2022-10-15 10:29:00,,0826.0,4.99,0.00,28.2,26.5,00.0,37.1,30.0,08.5,0000.0,0008.97,0003.41,0002.57
2022-10-15 10:30:00,,0825.9,5.01,0.00,28.2,26.5,00.0,37.1,29.9,08.5,0000.0,0008.98,0003.40,0002.58
2022-10-15 10:31:00,,0825.9,5.01,0.00,28.2,26.4,00.0,37.1,29.8,08.5,0000.0,0008.86,0003.35,0002.58
2022-10-15 10:32:00,,0825.9,4.99,0.00,28.1,26.4,00.0,37.1,29.9,08.5,0000.0,0008.86,0003.34,0002.57
2022-10-15 10:33:00,,0826.0,5.00,0.00,28.1,26.4,00.0,37.1,29.9,08.6,0000.0,0008.81,0003.34,0002.59
2022-10-15 10:34:00,,0826.0,5.01,0.00,28.1,26.4,00.0,37.1,29.8,08.7,0000.0,0008.49,0003.35,0002.60
2022-10-15 10:35:00,,0825.9,4.98,0.00,28.1,26.4,00.0,37.1,29.9,08.6,0000.0,0008.48,0003.34,0002.61
2022-10-15 10:36:00,,0826.0,5.02,0.00,28.1,26.4,00.0,37.1,29.8,08.6,0000.0,0008.74,0003.35,0002.63
2022-10-15 10:37:00,,0826.0,4.99,0.00,28.1,26.4,00.0,37.0,29.8,08.6,0000.0,0008.89,0003.36,0002.66
2022-10-15 10:38:00,,0826.0,4.99,0.00,28.1,26.4,00.0,37.0,29.8,08.6,0000.0,0008.21,0003.35,0002.67
2022-10-15 10:39:00,,0826.0,5.01,0.00,28.1,26.4,00.0,37.0,29.9,08.6,0000.0,0008.16,0003.37,0002.69
2022-10-15 10:40:00,,0826.0,5.01,0.00,28.1,26.4,00.0,37.0,29.9,08.6,0000.0,0007.57,0003.37,0002.70
2022-10-15 10:41:00,,0826.1,5.00,0.00,28.1,26.4,00.0,37.0,29.8,08.6,0000.0,0008.04,0003.37,0002.70
2022-10-15 10:42:00,,0826.0,5.00,0.00,28.1,26.4,00.0,37.0,29.8,08.6,0000.0,0008.22,0003.42,0002.70
2022-10-15 10:43:00,,0826.0,5.01,0.00,28.1,26.4,00.0,37.0,29.8,08.6,0000.0,0008.30,0003.44,0002.72
2022-10-15 10:44:00,,0826.0,4.99,0.00,28.1,26.4,00.0,37.0,29.8,08.7,0000.0,0008.29,0003.44,0002.71
2022-10-15 10:45:00,,0826.0,5.02,0.00,28.1,26.4,00.0,37.0,29.8,08.7,0000.0,0008.37,0003.45,0002.71
2022-10-15 10:46:00,,0826.1,4.99,0.00,28.1,26.4,00.0,37.0,29.8,08.7,0000.0,0009.03,0003.45,0002.72
2022-10-15 10:47:00,,0826.1,5.00,0.00,28.1,26.4,00.0,37.0,29.8,08.7,0000.0,0009.19,0003.44,0002.70
2022-10-15 10:48:00,,0826.2,5.01,0.00,28.0,26.4,00.0,37.0,29.8,08.7,0000.0,0008.92,0003.39,0002.68
2022-10-15 10:49:00,,0826.2,4.99,0.00,28.0,26.4,00.0,37.0,29.8,08.7,0000.0,0008.83,0003.36,0002.66
2022-10-15 10:50:00,,0826.2,5.01,0.00,28.0,26.4,00.0,37.0,29.8,08.7,0000.0,0008.48,0003.34,0002.67
2022-10-15 10:51:00,,0826.1,5.00,0.00,28.0,26.4,00.0,37.0,29.8,08.7,0000.0,0008.57,0003.33,0002.68
2022-10-15 10:52:00,,0826.1,4.99,0.00,28.0,26.4,00.0,37.0,29.8,08.8,0000.0,0008.14,0003.34,0002.69
2022-10-15 10:53:00,,0826.1,5.00,0.00,28.0,26.4,00.0,37.0,29.8,08.8,0000.0,0007.94,0003.31,0002.69
2022-10-15 10:54:00,,0826.1,5.00,0.00,28.0,26.3,00.0,36.9,29.7,08.9,0000.0,0007.85,0003.31,0002.69
2022-10-15 10:55:00,,0826.2,5.00,0.00,28.0,26.3,00.0,36.9,29.8,08.8,0000.0,0007.94,0003.31,0002.70
2022-10-15 10:56:00,,0826.2,4.99,0.00,28.0,26.3,00.0,36.9,29.7,08.9,0000.0,0007.88,0003.30,0002.70
2022-10-15 10:57:00,,0826.2,5.01,0.00,28.0,26.3,00.0,36.9,29.7,08.8,0000.0,0006.73,0003.27,0002.70
2022-10-15 10:58:00,,0826.2,5.00,0.00,28.0,26.3,00.0,36.9,29.7,08.9,0000.0,0006.31,0003.26,0002.73
2022-10-15 10:59:00,,0826.2,4.98,0.00,28.0,26.3,00.0,36.9,29.7,09.0,0000.0,0007.08,0003.28,0002.75
